Year,Month,Day,Hour,Minute,Value (Times are PST for temperature in C)
2008,09,14,00,00,11.60
2008,09,14,00,01,11.60
2008,09,14,00,02,11.60
2008,09,14,00,03,11.60
2008,09,14,00,04,11.60
2008,09,14,00,05,11.60
2008,09,14,00,06,11.60
2008,09,14,00,07,11.60
2008,09,14,00,08,11.60
2008,09,14,00,09,11.60
2008,09,14,00,10,11.60
2008,09,14,00,11,11.60
2008,09,14,00,12,11.70
2008,09,14,00,13,11.70
2008,09,14,00,14,11.60
2008,09,14,00,15,11.60
2008,09,14,00,16,11.60
2008,09,14,00,17,11.60
2008,09,14,00,18,11.70
2008,09,14,00,19,11.70
2008,09,14,00,20,11.70
2008,09,14,00,21,11.70
2008,09,14,00,22,11.70
2008,09,14,00,23,11.70
2008,09,14,00,24,11.70
2008,09,14,00,25,11.70
2008,09,14,00,26,11.70
2008,09,14,00,27,11.70
2008,09,14,00,28,11.60
2008,09,14,00,29,11.60
2008,09,14,00,30,11.60
2008,09,14,00,31,11.60
2008,09,14,00,32,11.60
2008,09,14,00,33,11.60
2008,09,14,00,34,11.60
2008,09,14,00,35,11.60
2008,09,14,00,36,11.60
2008,09,14,00,37,11.60
2008,09,14,00,38,11.60
2008,09,14,00,39,11.60
2008,09,14,00,40,11.60
2008,09,14,00,41,11.60
2008,09,14,00,42,11.60
2008,09,14,00,43,11.60
2008,09,14,00,44,11.40
2008,09,14,00,45,11.40
2008,09,14,00,46,11.40
2008,09,14,00,47,11.40
2008,09,14,00,48,11.40
2008,09,14,00,49,11.40
2008,09,14,00,50,11.40
2008,09,14,00,51,11.40
2008,09,14,00,52,11.40
2008,09,14,00,53,11.40
2008,09,14,00,54,11.40
2008,09,14,00,55,11.40
2008,09,14,00,56,11.40
2008,09,14,00,57,11.40
2008,09,14,00,58,11.40
2008,09,14,00,59,11.40
2008,09,14,01,00,11.40
2008,09,14,01,01,11.30
2008,09,14,01,02,11.30
2008,09,14,01,03,11.30
2008,09,14,01,04,11.30
2008,09,14,01,05,11.30
2008,09,14,01,06,11.30
2008,09,14,01,07,11.30
2008,09,14,01,08,11.30
2008,09,14,01,09,11.30
2008,09,14,01,10,11.30
2008,09,14,01,11,11.30
2008,09,14,01,12,11.30
2008,09,14,01,13,11.30
2008,09,14,01,14,11.20
2008,09,14,01,15,11.20
2008,09,14,01,16,11.20
2008,09,14,01,17,11.20
2008,09,14,01,18,11.20
2008,09,14,01,19,11.10
2008,09,14,01,20,11.10
2008,09,14,01,21,11.10
2008,09,14,01,22,11.10
2008,09,14,01,23,11.10
2008,09,14,01,24,11.10
2008,09,14,01,25,11.10
2008,09,14,01,26,11.00
2008,09,14,01,27,10.90
2008,09,14,01,28,10.90
2008,09,14,01,29,10.90
2008,09,14,01,30,10.90
2008,09,14,01,31,10.90
2008,09,14,01,32,10.90
2008,09,14,01,33,10.90
2008,09,14,01,34,10.90
2008,09,14,01,35,10.90
2008,09,14,01,36,10.90
2008,09,14,01,37,10.90
2008,09,14,01,38,10.90
2008,09,14,01,39,10.90
2008,09,14,01,40,10.90
2008,09,14,01,41,10.90
2008,09,14,01,42,10.90
2008,09,14,01,43,10.90
2008,09,14,01,44,10.80
2008,09,14,01,45,10.80
2008,09,14,01,46,10.80
2008,09,14,01,47,10.80
2008,09,14,01,48,10.80
2008,09,14,01,49,10.80
2008,09,14,01,50,10.70
2008,09,14,01,51,10.70
2008,09,14,01,52,10.70
2008,09,14,01,53,10.70
2008,09,14,01,54,10.70
2008,09,14,01,55,10.60
2008,09,14,01,56,10.60
2008,09,14,01,57,10.60
2008,09,14,01,58,10.60
2008,09,14,01,59,10.60
2008,09,14,02,00,10.60
2008,09,14,02,01,10.60
2008,09,14,02,02,10.60
2008,09,14,02,03,10.60
2008,09,14,02,04,10.60
2008,09,14,02,05,10.60
2008,09,14,02,06,10.60
2008,09,14,02,07,10.40
2008,09,14,02,08,10.40
2008,09,14,02,09,10.40
2008,09,14,02,10,10.40
2008,09,14,02,11,10.40
2008,09,14,02,12,10.40
2008,09,14,02,13,10.40
2008,09,14,02,14,10.40
2008,09,14,02,15,10.40
2008,09,14,02,16,10.30
2008,09,14,02,17,10.30
2008,09,14,02,18,10.30
2008,09,14,02,19,10.30
2008,09,14,02,20,10.30
2008,09,14,02,21,10.30
2008,09,14,02,22,10.20
2008,09,14,02,23,10.20
2008,09,14,02,24,10.20
2008,09,14,02,25,10.20
2008,09,14,02,26,10.20
2008,09,14,02,27,10.20
2008,09,14,02,28,10.20
2008,09,14,02,29,10.20
2008,09,14,02,30,10.10
2008,09,14,02,31,10.10
2008,09,14,02,32,10.10
2008,09,14,02,33,10.10
2008,09,14,02,34,10.10
2008,09,14,02,35,10.10
2008,09,14,02,36,10.10
2008,09,14,02,37,10.10
2008,09,14,02,38,10.10
2008,09,14,02,39,10.10
2008,09,14,02,40,10.10
2008,09,14,02,41,10.10
2008,09,14,02,42,10.00
2008,09,14,02,43,9.90
2008,09,14,02,44,9.90
2008,09,14,02,45,9.90
2008,09,14,02,46,9.90
2008,09,14,02,47,9.90
2008,09,14,02,48,9.90
2008,09,14,02,49,9.90
2008,09,14,02,50,9.90
2008,09,14,02,51,9.90
2008,09,14,02,52,9.90
2008,09,14,02,53,9.90
2008,09,14,02,54,9.90
2008,09,14,02,55,9.90
2008,09,14,02,56,9.90
2008,09,14,02,57,9.90
2008,09,14,02,58,9.90
2008,09,14,02,59,9.90
2008,09,14,03,00,9.90
2008,09,14,03,01,9.90
2008,09,14,03,02,9.90
2008,09,14,03,03,9.90
2008,09,14,03,04,9.90
2008,09,14,03,05,9.90
2008,09,14,03,06,9.90
2008,09,14,03,07,9.90
2008,09,14,03,08,9.90
2008,09,14,03,09,9.90
2008,09,14,03,10,9.80
2008,09,14,03,11,9.80
2008,09,14,03,12,9.80
2008,09,14,03,13,9.80
2008,09,14,03,14,9.80
2008,09,14,03,15,9.80
2008,09,14,03,16,9.80
2008,09,14,03,17,9.80
2008,09,14,03,18,9.70
2008,09,14,03,19,9.70
2008,09,14,03,20,9.70
2008,09,14,03,21,9.70
2008,09,14,03,22,9.70
2008,09,14,03,23,9.70
2008,09,14,03,24,9.70
2008,09,14,03,25,9.70
2008,09,14,03,26,9.70
2008,09,14,03,27,9.70
2008,09,14,03,28,9.70
2008,09,14,03,29,9.70
2008,09,14,03,30,9.70
2008,09,14,03,31,9.70
2008,09,14,03,32,9.70
2008,09,14,03,33,9.70
2008,09,14,03,34,9.70
2008,09,14,03,35,9.70
2008,09,14,03,36,9.70
2008,09,14,03,37,9.70
2008,09,14,03,38,9.70
2008,09,14,03,39,9.70
2008,09,14,03,40,9.70
2008,09,14,03,41,9.70
2008,09,14,03,42,9.70
2008,09,14,03,43,9.70
2008,09,14,03,44,9.70
2008,09,14,03,45,9.70
2008,09,14,03,46,9.70
2008,09,14,03,47,9.70
2008,09,14,03,48,9.70
2008,09,14,03,49,9.70
2008,09,14,03,50,9.70
2008,09,14,03,51,9.70
2008,09,14,03,52,9.70
2008,09,14,03,53,9.70
2008,09,14,03,54,9.70
2008,09,14,03,55,9.60
2008,09,14,03,56,9.60
2008,09,14,03,57,9.60
2008,09,14,03,58,9.60
2008,09,14,03,59,9.60
2008,09,14,04,00,9.60
2008,09,14,04,01,9.60
2008,09,14,04,02,9.60
2008,09,14,04,03,9.60
2008,09,14,04,04,9.60
2008,09,14,04,05,9.60
2008,09,14,04,06,9.60
2008,09,14,04,07,9.60
2008,09,14,04,08,9.60
2008,09,14,04,09,9.60
2008,09,14,04,10,9.50
2008,09,14,04,11,9.50
2008,09,14,04,12,9.50
2008,09,14,04,13,9.50
2008,09,14,04,14,9.50
2008,09,14,04,15,9.50
2008,09,14,04,16,9.40
2008,09,14,04,17,9.40
2008,09,14,04,18,9.40
2008,09,14,04,19,9.40
2008,09,14,04,20,9.40
2008,09,14,04,21,9.40
2008,09,14,04,22,9.40
2008,09,14,04,23,9.40
2008,09,14,04,24,9.30
2008,09,14,04,25,9.30
2008,09,14,04,26,9.30
2008,09,14,04,27,9.30
2008,09,14,04,28,9.30
2008,09,14,04,29,9.30
2008,09,14,04,30,9.30
2008,09,14,04,31,9.30
2008,09,14,04,32,9.20
2008,09,14,04,33,9.20
2008,09,14,04,34,9.20
2008,09,14,04,35,9.20
2008,09,14,04,36,9.20
2008,09,14,04,37,9.20
2008,09,14,04,38,9.20
2008,09,14,04,39,9.20
2008,09,14,04,40,9.20
2008,09,14,04,41,9.20
2008,09,14,04,42,9.20
2008,09,14,04,43,9.20
2008,09,14,04,44,9.20
2008,09,14,04,45,9.20
2008,09,14,04,46,9.20
2008,09,14,04,47,9.20
2008,09,14,04,48,9.10
2008,09,14,04,49,9.10
2008,09,14,04,50,9.10
2008,09,14,04,51,9.10
2008,09,14,04,52,9.10
2008,09,14,04,53,9.10
2008,09,14,04,54,9.10
2008,09,14,04,55,9.10
2008,09,14,04,56,9.10
2008,09,14,04,57,9.10
2008,09,14,04,58,9.10
2008,09,14,04,59,9.10
2008,09,14,05,00,9.10
2008,09,14,05,01,9.10
2008,09,14,05,02,9.10
2008,09,14,05,03,9.10
2008,09,14,05,04,9.00
2008,09,14,05,05,9.10
2008,09,14,05,06,9.10
2008,09,14,05,07,9.10
2008,09,14,05,08,9.10
2008,09,14,05,09,9.10
2008,09,14,05,10,9.00
2008,09,14,05,11,9.00
2008,09,14,05,12,9.10
2008,09,14,05,13,9.00
2008,09,14,05,14,9.00
2008,09,14,05,15,9.00
2008,09,14,05,16,9.00
2008,09,14,05,17,9.00
2008,09,14,05,18,9.00
2008,09,14,05,19,9.00
2008,09,14,05,20,9.00
2008,09,14,05,21,9.00
2008,09,14,05,22,9.00
2008,09,14,05,23,9.00
2008,09,14,05,24,9.00
2008,09,14,05,25,9.00
2008,09,14,05,26,9.00
2008,09,14,05,27,9.00
2008,09,14,05,28,9.00
2008,09,14,05,29,9.00
2008,09,14,05,30,8.90
2008,09,14,05,31,8.90
2008,09,14,05,32,8.90
2008,09,14,05,33,8.90
2008,09,14,05,34,8.90
2008,09,14,05,35,8.90
2008,09,14,05,36,8.90
2008,09,14,05,37,8.90
2008,09,14,05,38,8.90
2008,09,14,05,39,8.90
2008,09,14,05,40,8.90
2008,09,14,05,41,8.90
2008,09,14,05,42,8.90
2008,09,14,05,43,8.90
2008,09,14,05,44,8.90
2008,09,14,05,45,8.90
2008,09,14,05,46,8.80
2008,09,14,05,47,8.80
2008,09,14,05,48,8.80
2008,09,14,05,49,8.80
2008,09,14,05,50,8.80
2008,09,14,05,51,8.80
2008,09,14,05,52,8.80
2008,09,14,05,53,8.80
2008,09,14,05,54,8.80
2008,09,14,05,55,8.80
2008,09,14,05,56,8.70
2008,09,14,05,57,8.80
2008,09,14,05,58,8.80
2008,09,14,05,59,8.80
2008,09,14,06,00,8.80
2008,09,14,06,01,8.80
2008,09,14,06,02,8.80
2008,09,14,06,03,8.80
2008,09,14,06,04,8.80
2008,09,14,06,05,8.80
2008,09,14,06,06,8.80
2008,09,14,06,07,8.80
2008,09,14,06,08,8.80
2008,09,14,06,09,8.70
2008,09,14,06,10,8.70
2008,09,14,06,11,8.70
2008,09,14,06,12,8.70
2008,09,14,06,13,8.70
2008,09,14,06,14,8.70
2008,09,14,06,15,8.70
2008,09,14,06,16,8.70
2008,09,14,06,17,8.70
2008,09,14,06,18,8.70
2008,09,14,06,19,8.70
2008,09,14,06,20,8.70
2008,09,14,06,21,8.70
2008,09,14,06,22,8.70
2008,09,14,06,23,8.70
2008,09,14,06,24,8.70
2008,09,14,06,25,8.70
2008,09,14,06,26,8.60
2008,09,14,06,27,8.60
2008,09,14,06,28,8.60
2008,09,14,06,29,8.60
2008,09,14,06,30,8.60
2008,09,14,06,31,8.60
2008,09,14,06,32,8.50
2008,09,14,06,33,8.50
2008,09,14,06,34,8.50
2008,09,14,06,35,8.50
2008,09,14,06,36,8.50
2008,09,14,06,37,8.50
2008,09,14,06,38,8.50
2008,09,14,06,39,8.50
2008,09,14,06,40,8.50
2008,09,14,06,41,8.50
2008,09,14,06,42,8.50
2008,09,14,06,43,8.50
2008,09,14,06,44,8.40
2008,09,14,06,45,8.40
2008,09,14,06,46,8.40
2008,09,14,06,47,8.40
2008,09,14,06,48,8.40
2008,09,14,06,49,8.40
2008,09,14,06,50,8.40
2008,09,14,06,51,8.40
2008,09,14,06,52,8.40
2008,09,14,06,53,8.30
2008,09,14,06,54,8.30
2008,09,14,06,55,8.30
2008,09,14,06,56,8.30
2008,09,14,06,57,8.30
2008,09,14,06,58,8.30
2008,09,14,06,59,8.30
2008,09,14,07,00,8.20
2008,09,14,07,01,8.20
2008,09,14,07,02,8.20
2008,09,14,07,03,8.20
2008,09,14,07,04,8.20
2008,09,14,07,05,8.20
2008,09,14,07,06,8.20
2008,09,14,07,07,8.20
2008,09,14,07,08,8.20
2008,09,14,07,09,8.20
2008,09,14,07,10,8.20
2008,09,14,07,11,8.20
2008,09,14,07,12,8.20
2008,09,14,07,13,8.20
2008,09,14,07,14,8.20
2008,09,14,07,15,8.20
2008,09,14,07,16,8.20
2008,09,14,07,17,8.20
2008,09,14,07,18,8.20
2008,09,14,07,19,8.20
2008,09,14,07,20,8.20
2008,09,14,07,21,8.20
2008,09,14,07,22,8.20
2008,09,14,07,23,8.20
2008,09,14,07,24,8.20
2008,09,14,07,25,8.20
2008,09,14,07,26,8.20
2008,09,14,07,27,8.20
2008,09,14,07,28,8.30
2008,09,14,07,29,8.30
2008,09,14,07,30,8.30
2008,09,14,07,31,8.30
2008,09,14,07,32,8.30
2008,09,14,07,33,8.30
2008,09,14,07,34,8.30
2008,09,14,07,35,8.40
2008,09,14,07,36,8.40
2008,09,14,07,37,8.40
2008,09,14,07,38,8.50
2008,09,14,07,39,8.50
2008,09,14,07,40,8.50
2008,09,14,07,41,8.60
2008,09,14,07,42,8.60
2008,09,14,07,43,8.70
2008,09,14,07,44,8.70
2008,09,14,07,45,8.70
2008,09,14,07,46,8.80
2008,09,14,07,47,8.90
2008,09,14,07,48,8.90
2008,09,14,07,49,9.00
2008,09,14,07,50,9.10
2008,09,14,07,51,9.10
2008,09,14,07,52,9.20
2008,09,14,07,53,9.20
2008,09,14,07,54,9.30
2008,09,14,07,55,9.30
2008,09,14,07,56,9.40
2008,09,14,07,57,9.40
2008,09,14,07,58,9.50
2008,09,14,07,59,9.60
2008,09,14,08,00,9.60
2008,09,14,08,01,9.70
2008,09,14,08,02,9.70
2008,09,14,08,03,9.80
2008,09,14,08,04,9.90
2008,09,14,08,05,9.90
2008,09,14,08,06,10.00
2008,09,14,08,07,10.10
2008,09,14,08,08,10.20
2008,09,14,08,09,10.30
2008,09,14,08,10,10.40
2008,09,14,08,11,10.50
2008,09,14,08,12,10.60
2008,09,14,08,13,10.70
2008,09,14,08,14,10.80
2008,09,14,08,15,10.80
2008,09,14,08,16,10.90
2008,09,14,08,17,10.90
2008,09,14,08,18,11.10
2008,09,14,08,19,11.10
2008,09,14,08,20,11.20
2008,09,14,08,21,11.20
2008,09,14,08,22,11.30
2008,09,14,08,23,11.40
2008,09,14,08,24,11.50
2008,09,14,08,25,11.60
2008,09,14,08,26,11.70
2008,09,14,08,27,11.80
2008,09,14,08,28,11.80
2008,09,14,08,29,11.90
2008,09,14,08,30,12.00
2008,09,14,08,31,12.10
2008,09,14,08,32,12.20
2008,09,14,08,33,12.30
2008,09,14,08,34,12.40
2008,09,14,08,35,12.50
2008,09,14,08,36,12.60
2008,09,14,08,37,12.70
2008,09,14,08,38,12.70
2008,09,14,08,39,12.80
2008,09,14,08,40,12.90
2008,09,14,08,41,13.00
2008,09,14,08,42,13.10
2008,09,14,08,43,13.20
2008,09,14,08,44,13.30
2008,09,14,08,45,13.40
2008,09,14,08,46,13.60
2008,09,14,08,47,13.70
2008,09,14,08,48,13.90
2008,09,14,08,49,14.10
2008,09,14,08,50,14.20
2008,09,14,08,51,14.40
2008,09,14,08,52,14.50
2008,09,14,08,53,14.60
2008,09,14,08,54,14.70
2008,09,14,08,55,14.80
2008,09,14,08,56,14.90
2008,09,14,08,57,15.00
2008,09,14,08,58,15.10
2008,09,14,08,59,15.20
2008,09,14,09,00,15.30
2008,09,14,09,01,15.40
2008,09,14,09,02,15.50
2008,09,14,09,03,15.60
2008,09,14,09,04,15.70
2008,09,14,09,05,15.80
2008,09,14,09,06,15.90
2008,09,14,09,07,16.10
2008,09,14,09,08,16.20
2008,09,14,09,09,16.30
2008,09,14,09,10,16.40
2008,09,14,09,11,16.40
2008,09,14,09,12,16.40
2008,09,14,09,13,16.40
2008,09,14,09,14,16.60
2008,09,14,09,15,16.60
2008,09,14,09,16,16.70
2008,09,14,09,17,16.70
2008,09,14,09,18,16.80
2008,09,14,09,19,16.90
2008,09,14,09,20,17.00
2008,09,14,09,21,17.20
2008,09,14,09,22,17.30
2008,09,14,09,23,17.50
2008,09,14,09,24,17.60
2008,09,14,09,25,17.80
2008,09,14,09,26,17.90
2008,09,14,09,27,18.00
2008,09,14,09,28,18.10
2008,09,14,09,29,18.20
2008,09,14,09,30,18.20
2008,09,14,09,31,18.30
2008,09,14,09,32,18.40
2008,09,14,09,33,18.40
2008,09,14,09,34,18.50
2008,09,14,09,35,18.60
2008,09,14,09,36,18.60
2008,09,14,09,37,18.70
2008,09,14,09,38,18.70
2008,09,14,09,39,18.70
2008,09,14,09,40,18.70
2008,09,14,09,41,18.70
2008,09,14,09,42,18.70
2008,09,14,09,43,18.80
2008,09,14,09,44,18.90
2008,09,14,09,45,18.90
2008,09,14,09,46,18.90
2008,09,14,09,47,18.90
2008,09,14,09,48,18.90
2008,09,14,09,49,18.90
2008,09,14,09,50,18.90
2008,09,14,09,51,18.90
2008,09,14,09,52,18.90
2008,09,14,09,53,19.10
2008,09,14,09,54,19.10
2008,09,14,09,55,19.10
2008,09,14,09,56,19.10
2008,09,14,09,57,19.20
2008,09,14,09,58,19.20
2008,09,14,09,59,19.20
2008,09,14,10,00,19.20
2008,09,14,10,01,19.20
2008,09,14,10,02,19.30
2008,09,14,10,03,19.30
2008,09,14,10,04,19.40
2008,09,14,10,05,19.40
2008,09,14,10,06,19.40
2008,09,14,10,07,19.50
2008,09,14,10,08,19.50
2008,09,14,10,09,19.60
2008,09,14,10,10,19.60
2008,09,14,10,11,19.60
2008,09,14,10,12,19.60
2008,09,14,10,13,19.60
2008,09,14,10,14,19.60
2008,09,14,10,15,19.70
2008,09,14,10,16,19.70
2008,09,14,10,17,19.70
2008,09,14,10,18,19.80
2008,09,14,10,19,19.90
2008,09,14,10,20,20.00
2008,09,14,10,21,20.10
2008,09,14,10,22,20.10
2008,09,14,10,23,19.90
2008,09,14,10,24,19.80
2008,09,14,10,25,19.50
2008,09,14,10,26,19.20
2008,09,14,10,27,19.10
2008,09,14,10,28,18.90
2008,09,14,10,29,18.90
2008,09,14,10,30,18.90
2008,09,14,10,31,18.70
2008,09,14,10,32,18.60
2008,09,14,10,33,18.60
2008,09,14,10,34,18.50
2008,09,14,10,35,18.30
2008,09,14,10,36,18.20
2008,09,14,10,37,18.20
2008,09,14,10,38,18.20
2008,09,14,10,39,18.20
2008,09,14,10,40,18.20
2008,09,14,10,41,18.20
2008,09,14,10,42,18.10
2008,09,14,10,43,18.10
2008,09,14,10,44,18.00
2008,09,14,10,45,18.10
2008,09,14,10,46,18.10
2008,09,14,10,47,18.10
2008,09,14,10,48,18.10
2008,09,14,10,49,18.10
2008,09,14,10,50,18.10
2008,09,14,10,51,18.20
2008,09,14,10,52,18.20
2008,09,14,10,53,18.10
2008,09,14,10,54,18.00
2008,09,14,10,55,17.90
2008,09,14,10,56,17.90
2008,09,14,10,57,18.00
2008,09,14,10,58,18.00
2008,09,14,10,59,17.90
2008,09,14,11,00,17.90
2008,09,14,11,01,17.90
2008,09,14,11,02,17.90
2008,09,14,11,03,18.00
2008,09,14,11,04,18.10
2008,09,14,11,05,18.30
2008,09,14,11,06,18.50
2008,09,14,11,07,18.70
2008,09,14,11,08,18.80
2008,09,14,11,09,18.90
2008,09,14,11,10,19.00
2008,09,14,11,11,19.10
2008,09,14,11,12,19.30
2008,09,14,11,13,19.40
2008,09,14,11,14,19.50
2008,09,14,11,15,19.40
2008,09,14,11,16,19.40
2008,09,14,11,17,19.40
2008,09,14,11,18,19.50
2008,09,14,11,19,19.60
2008,09,14,11,20,19.70
2008,09,14,11,21,19.80
2008,09,14,11,22,19.80
2008,09,14,11,23,19.70
2008,09,14,11,24,19.60
2008,09,14,11,25,19.60
2008,09,14,11,26,19.70
2008,09,14,11,27,19.60
2008,09,14,11,28,19.50
2008,09,14,11,29,19.40
2008,09,14,11,30,19.40
2008,09,14,11,31,19.50
2008,09,14,11,32,19.60
2008,09,14,11,33,19.80
2008,09,14,11,34,19.80
2008,09,14,11,35,19.80
2008,09,14,11,36,19.80
2008,09,14,11,37,19.80
2008,09,14,11,38,19.80
2008,09,14,11,39,19.90
2008,09,14,11,40,20.00
2008,09,14,11,41,20.20
2008,09,14,11,42,20.30
2008,09,14,11,43,20.50
2008,09,14,11,44,20.60
2008,09,14,11,45,20.70
2008,09,14,11,46,20.90
2008,09,14,11,47,20.90
2008,09,14,11,48,21.00
2008,09,14,11,49,21.00
2008,09,14,11,50,21.20
2008,09,14,11,51,21.30
2008,09,14,11,52,21.30
2008,09,14,11,53,21.40
2008,09,14,11,54,21.40
2008,09,14,11,55,21.60
2008,09,14,11,56,21.60
2008,09,14,11,57,21.60
2008,09,14,11,58,21.70
2008,09,14,11,59,21.70
2008,09,14,12,00,21.70
2008,09,14,12,01,21.80
2008,09,14,12,02,21.70
2008,09,14,12,03,21.60
2008,09,14,12,04,21.60
2008,09,14,12,05,21.60
2008,09,14,12,06,21.60
2008,09,14,12,07,21.60
2008,09,14,12,08,21.60
2008,09,14,12,09,21.60
2008,09,14,12,10,21.60
2008,09,14,12,11,21.60
2008,09,14,12,12,21.60
2008,09,14,12,13,21.40
2008,09,14,12,14,21.40
2008,09,14,12,15,21.30
2008,09,14,12,16,21.30
2008,09,14,12,17,21.20
2008,09,14,12,18,21.10
2008,09,14,12,19,21.10
2008,09,14,12,20,21.10
2008,09,14,12,21,21.20
2008,09,14,12,22,21.20
2008,09,14,12,23,21.20
2008,09,14,12,24,21.30
2008,09,14,12,25,21.30
2008,09,14,12,26,21.40
2008,09,14,12,27,21.40
2008,09,14,12,28,21.50
2008,09,14,12,29,21.60
2008,09,14,12,30,21.60
2008,09,14,12,31,21.60
2008,09,14,12,32,21.60
2008,09,14,12,33,21.70
2008,09,14,12,34,21.80
2008,09,14,12,35,21.80
2008,09,14,12,36,21.80
2008,09,14,12,37,21.80
2008,09,14,12,38,21.90
2008,09,14,12,39,22.00
2008,09,14,12,40,22.10
2008,09,14,12,41,22.20
2008,09,14,12,42,22.20
2008,09,14,12,43,22.20
2008,09,14,12,44,22.20
2008,09,14,12,45,22.30
2008,09,14,12,46,22.30
2008,09,14,12,47,22.20
2008,09,14,12,48,22.10
2008,09,14,12,49,22.10
2008,09,14,12,50,22.10
2008,09,14,12,51,22.10
2008,09,14,12,52,22.10
2008,09,14,12,53,22.10
2008,09,14,12,54,22.10
2008,09,14,12,55,22.10
2008,09,14,12,56,22.20
2008,09,14,12,57,22.20
2008,09,14,12,58,22.40
2008,09,14,12,59,22.50
2008,09,14,13,00,22.50
2008,09,14,13,01,22.60
2008,09,14,13,02,22.60
2008,09,14,13,03,22.60
2008,09,14,13,04,22.50
2008,09,14,13,05,22.50
2008,09,14,13,06,22.60
2008,09,14,13,07,22.50
2008,09,14,13,08,22.50
2008,09,14,13,09,22.50
2008,09,14,13,10,22.50
2008,09,14,13,11,22.60
2008,09,14,13,12,22.60
2008,09,14,13,13,22.60
2008,09,14,13,14,22.50
2008,09,14,13,15,22.30
2008,09,14,13,16,22.30
2008,09,14,13,17,22.30
2008,09,14,13,18,22.30
2008,09,14,13,19,22.40
2008,09,14,13,20,22.40
2008,09,14,13,21,22.40
2008,09,14,13,22,22.40
2008,09,14,13,23,22.30
2008,09,14,13,24,22.30
2008,09,14,13,25,22.40
2008,09,14,13,26,22.40
2008,09,14,13,27,22.30
2008,09,14,13,28,22.30
2008,09,14,13,29,22.30
2008,09,14,13,30,22.30
2008,09,14,13,31,22.20
2008,09,14,13,32,22.30
2008,09,14,13,33,22.30
2008,09,14,13,34,22.30
2008,09,14,13,35,22.40
2008,09,14,13,36,22.40
2008,09,14,13,37,22.30
2008,09,14,13,38,22.30
2008,09,14,13,39,22.30
2008,09,14,13,40,22.40
2008,09,14,13,41,22.50
2008,09,14,13,42,22.40
2008,09,14,13,43,22.30
2008,09,14,13,44,22.30
2008,09,14,13,45,22.30
2008,09,14,13,46,22.30
2008,09,14,13,47,22.40
2008,09,14,13,48,22.50
2008,09,14,13,49,22.60
2008,09,14,13,50,22.70
2008,09,14,13,51,22.90
2008,09,14,13,52,23.10
2008,09,14,13,53,23.20
2008,09,14,13,54,23.30
2008,09,14,13,55,23.30
2008,09,14,13,56,23.30
2008,09,14,13,57,23.30
2008,09,14,13,58,23.30
2008,09,14,13,59,23.30
2008,09,14,14,00,23.30
2008,09,14,14,01,23.30
2008,09,14,14,02,23.50
2008,09,14,14,03,23.60
2008,09,14,14,04,23.70
2008,09,14,14,05,23.80
2008,09,14,14,06,23.70
2008,09,14,14,07,23.70
2008,09,14,14,08,23.70
2008,09,14,14,09,23.60
2008,09,14,14,10,23.60
2008,09,14,14,11,23.50
2008,09,14,14,12,23.40
2008,09,14,14,13,23.30
2008,09,14,14,14,23.30
2008,09,14,14,15,23.30
2008,09,14,14,16,23.30
2008,09,14,14,17,23.30
2008,09,14,14,18,23.20
2008,09,14,14,19,23.20
2008,09,14,14,20,23.20
2008,09,14,14,21,23.20
2008,09,14,14,22,23.20
2008,09,14,14,23,23.10
2008,09,14,14,24,23.10
2008,09,14,14,25,23.10
2008,09,14,14,26,23.20
2008,09,14,14,27,23.20
2008,09,14,14,28,23.20
2008,09,14,14,29,23.20
2008,09,14,14,30,23.20
2008,09,14,14,31,23.30
2008,09,14,14,32,23.20
2008,09,14,14,33,23.20
2008,09,14,14,34,23.30
2008,09,14,14,35,23.30
2008,09,14,14,36,23.30
2008,09,14,14,37,23.30
2008,09,14,14,38,23.30
2008,09,14,14,39,23.40
2008,09,14,14,40,23.40
2008,09,14,14,41,23.50
2008,09,14,14,42,23.60
2008,09,14,14,43,23.60
2008,09,14,14,44,23.40
2008,09,14,14,45,23.30
2008,09,14,14,46,23.30
2008,09,14,14,47,23.20
2008,09,14,14,48,23.20
2008,09,14,14,49,23.00
2008,09,14,14,50,22.90
2008,09,14,14,51,22.80
2008,09,14,14,52,22.70
2008,09,14,14,53,22.70
2008,09,14,14,54,22.70
2008,09,14,14,55,22.70
2008,09,14,14,56,22.80
2008,09,14,14,57,22.90
2008,09,14,14,58,23.00
2008,09,14,14,59,23.10
2008,09,14,15,00,23.10
2008,09,14,15,01,23.20
2008,09,14,15,02,23.30
2008,09,14,15,03,23.30
2008,09,14,15,04,23.30
2008,09,14,15,05,23.40
2008,09,14,15,06,23.60
2008,09,14,15,07,23.70
2008,09,14,15,08,23.70
2008,09,14,15,09,23.80
2008,09,14,15,10,23.80
2008,09,14,15,11,23.80
2008,09,14,15,12,23.80
2008,09,14,15,13,23.70
2008,09,14,15,14,23.80
2008,09,14,15,15,23.80
2008,09,14,15,16,23.70
2008,09,14,15,17,23.70
2008,09,14,15,18,23.70
2008,09,14,15,19,23.70
2008,09,14,15,20,23.70
2008,09,14,15,21,23.60
2008,09,14,15,22,23.60
2008,09,14,15,23,23.50
2008,09,14,15,24,23.40
2008,09,14,15,25,23.40
2008,09,14,15,26,23.40
2008,09,14,15,27,23.40
2008,09,14,15,28,23.30
2008,09,14,15,29,23.10
2008,09,14,15,30,23.10
2008,09,14,15,31,22.90
2008,09,14,15,32,22.90
2008,09,14,15,33,22.90
2008,09,14,15,34,22.90
2008,09,14,15,35,22.90
2008,09,14,15,36,22.90
2008,09,14,15,37,22.90
2008,09,14,15,38,22.90
2008,09,14,15,39,23.10
2008,09,14,15,40,23.10
2008,09,14,15,41,23.20
2008,09,14,15,42,23.30
2008,09,14,15,43,23.30
2008,09,14,15,44,23.30
2008,09,14,15,45,23.30
2008,09,14,15,46,23.30
2008,09,14,15,47,23.30
2008,09,14,15,48,23.30
2008,09,14,15,49,23.30
2008,09,14,15,50,23.30
2008,09,14,15,51,23.30
2008,09,14,15,52,23.40
2008,09,14,15,53,23.50
2008,09,14,15,54,23.60
2008,09,14,15,55,23.50
2008,09,14,15,56,23.40
2008,09,14,15,57,23.30
2008,09,14,15,58,23.40
2008,09,14,15,59,23.40
2008,09,14,16,00,23.40
2008,09,14,16,01,23.40
2008,09,14,16,02,23.40
2008,09,14,16,03,23.30
2008,09,14,16,04,23.20
2008,09,14,16,05,23.00
2008,09,14,16,06,22.90
2008,09,14,16,07,22.90
2008,09,14,16,08,22.80
2008,09,14,16,09,22.70
2008,09,14,16,10,22.60
2008,09,14,16,11,22.60
2008,09,14,16,12,22.60
2008,09,14,16,13,22.60
2008,09,14,16,14,22.60
2008,09,14,16,15,22.50
2008,09,14,16,16,22.50
2008,09,14,16,17,22.40
2008,09,14,16,18,22.40
2008,09,14,16,19,22.40
2008,09,14,16,20,22.40
2008,09,14,16,21,22.40
2008,09,14,16,22,22.30
2008,09,14,16,23,22.20
2008,09,14,16,24,22.20
2008,09,14,16,25,22.20
2008,09,14,16,26,22.20
2008,09,14,16,27,22.30
2008,09,14,16,28,22.20
2008,09,14,16,29,22.20
2008,09,14,16,30,22.20
2008,09,14,16,31,22.10
2008,09,14,16,32,22.10
2008,09,14,16,33,22.10
2008,09,14,16,34,22.10
2008,09,14,16,35,22.10
2008,09,14,16,36,22.10
2008,09,14,16,37,22.10
2008,09,14,16,38,22.00
2008,09,14,16,39,22.00
2008,09,14,16,40,22.10
2008,09,14,16,41,22.10
2008,09,14,16,42,22.10
2008,09,14,16,43,22.10
2008,09,14,16,44,22.20
2008,09,14,16,45,22.10
2008,09,14,16,46,22.10
2008,09,14,16,47,22.00
2008,09,14,16,48,21.90
2008,09,14,16,49,21.90
2008,09,14,16,50,21.90
2008,09,14,16,51,21.90
2008,09,14,16,52,21.90
2008,09,14,16,53,21.90
2008,09,14,16,54,21.90
2008,09,14,16,55,21.90
2008,09,14,16,56,21.90
2008,09,14,16,57,21.90
2008,09,14,16,58,22.00
2008,09,14,16,59,22.00
2008,09,14,17,00,22.10
2008,09,14,17,01,22.10
2008,09,14,17,02,22.00
2008,09,14,17,03,22.00
2008,09,14,17,04,22.00
2008,09,14,17,05,22.00
2008,09,14,17,06,22.10
2008,09,14,17,07,22.10
2008,09,14,17,08,22.20
2008,09,14,17,09,22.30
2008,09,14,17,10,22.30
2008,09,14,17,11,22.30
2008,09,14,17,12,22.30
2008,09,14,17,13,22.20
2008,09,14,17,14,22.20
2008,09,14,17,15,22.30
2008,09,14,17,16,22.30
2008,09,14,17,17,22.40
2008,09,14,17,18,22.50
2008,09,14,17,19,22.60
2008,09,14,17,20,22.70
2008,09,14,17,21,22.70
2008,09,14,17,22,22.80
2008,09,14,17,23,22.90
2008,09,14,17,24,22.90
2008,09,14,17,25,22.90
2008,09,14,17,26,22.90
2008,09,14,17,27,22.80
2008,09,14,17,28,22.80
2008,09,14,17,29,22.70
2008,09,14,17,30,22.60
2008,09,14,17,31,22.60
2008,09,14,17,32,22.60
2008,09,14,17,33,22.60